W3DAK Weather Reports


time (UTC)temp
C
wind
direction
speed
KPH
gust
KPH
rain 1hr
cm
rain 24hr
cm
rain mn
cm
humidity
%
barometer
mb
20260507054626 13 346 0.0 4.8 0.00 0.03 0.00 90 1010.7
20260507053120 13 350 3.2 9.7 0.00 0.03 0.00 89 1010.6
20260507051600 13 325 8.0 20.9 0.00 0.03 0.00 88 1011.1
20260507050047 15 327 9.7 22.5 0.00 0.03 0.00 82 1010.8
20260507044544 15 341 9.7 25.7 0.00 0.03 0.00 78 1010.1
20260507043039 16 346 9.7 22.5 0.00 0.03 0.00 81 1010.3
20260507041535 16 336 9.7 16.1 0.00 0.03 0.00 79 1010.0
20260507040031 16 330 3.2 20.9 0.00 0.03 0.00 78 1009.6
20260507034630 17 330 11.3 17.7 0.00 0.03 0.03 81 1010.1
20260507033038 17 311 8.0 16.1 0.00 0.03 0.03 82 1009.6
20260507031527 17 332 9.7 19.3 0.00 0.03 0.03 81 1009.6
20260507030028 18 340 4.8 12.9 0.00 0.03 0.03 83 1009.6
20260507024527 18 355 6.4 14.5 0.00 0.03 0.03 82 1009.0
20260507023033 18 319 4.8 12.9 0.00 0.03 0.03 82 1009.2
20260507021525 19 343 6.4 16.1 0.00 0.03 0.03 82 1009.3
20260507020025 19 338 9.7 19.3 0.00 0.03 0.03 82 1009.0
20260507014524 19 319 3.2 12.9 0.00 0.03 0.03 83 1009.2
20260507013024 19 236 1.6 6.4 0.00 0.03 0.03 82 1009.0
20260507011525 19 239 3.2 8.0 0.00 0.03 0.03 82 1009.1
20260507010122 20 250 6.4 19.3 0.00 0.03 0.03 82 1008.9
20260507004532 20 239 8.0 16.1 0.00 0.03 0.03 82 1008.8
20260507003021 20 229 3.2 8.0 0.00 0.03 0.03 81 1008.7
20260507001520 20 255 4.8 11.3 0.00 0.03 0.03 81 1008.6
20260507000019 20 249 4.8 12.9 0.00 0.03 0.03 80 1008.5
20260506234520 20 196 4.8 16.1 0.00 0.03 0.03 80 1008.3
20260506233019 20 234 6.4 16.1 0.00 0.03 0.03 79 1008.1
20260506231517 20 221 1.6 11.3 0.00 0.03 0.03 78 1008.1
20260506230016 20 190 6.4 12.9 0.00 0.03 0.03 78 1008.0
20260506224516 21 186 8.0 12.9 0.00 0.03 0.03 78 1008.0
20260506223017 21 200 6.4 14.5 0.00 0.03 0.03 76 1008.0
20260506221515 21 209 4.8 12.9 0.00 0.03 0.03 76 1008.0
20260506220029 21 229 9.7 17.7 0.00 0.03 0.03 74 1007.9
20260506214513 21 250 6.4 16.1 0.00 0.03 0.03 74 1007.7
20260506213013 21 264 6.4 19.3 0.00 0.03 0.03 75 1007.8
20260506211511 21 214 8.0 16.1 0.00 0.03 0.03 74 1007.8
20260506210013 21 186 4.8 14.5 0.00 0.03 0.03 74 1007.4
20260506204511 21 215 4.8 17.7 0.00 0.03 0.03 74 1007.6
20260506203018 21 200 8.0 17.7 0.00 0.03 0.03 74 1007.5
20260506201509 21 192 8.0 20.9 0.00 0.03 0.03 74 1007.4
20260506200005 21 182 9.7 17.7 0.00 0.03 0.03 75 1007.5
20260506194608 21 290 6.4 20.9 0.00 0.03 0.03 76 1007.6
20260506193102 21 263 3.2 22.5 0.00 0.03 0.03 76 1007.6
20260506191608 20 200 6.4 22.5 0.00 0.03 0.03 78 1007.9
20260506190054 20 221 12.9 22.5 0.00 0.03 0.03 80 1008.2
20260506184552 19 238 8.0 25.7 0.00 0.03 0.03 82 1008.2
20260506183053 18 253 6.4 24.1 0.00 0.03 0.03 83 1008.3
20260506181556 18 263 12.9 24.1 0.00 0.03 0.03 84 1008.5
20260506180105 18 192 6.4 24.1 0.00 0.03 0.03 86 1008.6
20260506174546 17 205 4.8 25.7 0.00 0.03 0.03 88 1008.6
20260506173104 17 240 9.7 24.1 0.00 0.03 0.03 90 1008.7
20260506171546 17 204 9.7 19.3 0.00 0.03 0.03 91 1008.7
20260506170042 16 182 6.4 19.3 0.00 0.03 0.03 91 1008.9
20260506164539 16 217 6.4 24.1 0.00 0.03 0.03 92 1008.9
20260506163039 16 230 9.7 22.5 0.00 0.03 0.03 92 1009.0
20260506161536 16 205 8.0 29.0 0.00 0.03 0.03 92 1009.2
20260506160036 16 221 4.8 16.1 0.00 0.03 0.03 92 1009.3
20260506154532 16 234 6.4 19.3 0.00 0.03 0.03 92 1009.0
20260506153030 16 275 9.7 19.3 0.00 0.03 0.03 92 1009.6
20260506151529 16 203 9.7 20.9 0.00 0.03 0.03 91 1010.0
20260506150025 16 158 9.7 22.5 0.00 0.03 0.03 90 1010.0
20260506144523 16 213 9.7 19.3 0.03 0.03 0.03 90 1010.0
20260506143025 16 215 4.8 16.1 0.03 0.03 0.03 89 1009.8
20260506141521 16 219 8.0 17.7 0.03 0.03 0.03 88 1010.0
20260506140017 17 226 9.7 16.1 0.03 0.03 0.03 86 1010.3
20260506134515 17 162 8.0 20.9 0.00 0.00 0.00 84 1010.4
20260506133017 17 205 6.4 16.1 0.00 0.00 0.00 82 1010.2
20260506131514 18 171 9.7 25.7 0.00 0.00 0.00 81 1010.1
20260506130016 18 213 6.4 19.3 0.00 0.00 0.00 81 1009.7
20260506124511 18 179 4.8 19.3 0.00 0.00 0.00 80 1009.8
20260506123013 18 205 9.7 17.7 0.00 0.00 0.00 79 1010.2
20260506121508 18 229 8.0 16.1 0.00 0.00 0.00 78 1010.3
20260506120020 18 214 8.0 19.3 0.00 0.00 0.00 77 1010.2
20260506114506 18 169 4.8 19.3 0.00 0.00 0.00 78 1009.9
20260506113006 18 168 9.7 22.5 0.00 0.00 0.00 79 1009.8
20260506111504 17 230 6.4 16.1 0.00 0.00 0.00 81 1009.7
20260506110004 17 226 8.0 17.7 0.00 0.00 0.00 83 1009.6
20260506104501 17 190 4.8 11.3 0.00 0.00 0.00 83 1009.4
20260506103057 16 209 3.2 11.3 0.00 0.00 0.00 84 1009.4
20260506101554 16 198 6.4 17.7 0.00 0.00 0.00 84 1009.4
20260506094608 17 208 3.2 11.3 0.00 0.00 0.00 83 1009.5
20260506093050 17 137 4.8 9.7 0.00 0.00 0.00 82 1009.4
20260506091548 17 190 4.8 9.7 0.00 0.00 0.00 81 1009.4
20260506090045 17 158 6.4 11.3 0.00 0.00 0.00 81 1009.7
20260506084548 17 194 4.8 12.9 0.00 0.00 0.00 80 1009.7
20260506083046 17 220 4.8 14.5 0.00 0.00 0.00 80 1009.5
20260506081541 17 205 6.4 14.5 0.00 0.00 0.00 80 1009.4
20260506073036 18 212 4.8 9.7 0.00 0.00 0.00 78 1009.6
20260506071534 18 177 4.8 12.9 0.00 0.00 0.00 77 1009.7
20260506061528 18 180 3.2 9.7 0.00 0.00 0.00 73 1010.1